[[{"header":{"parameterUnit":"m.s-1","parameterCategory":1,"la1":30.2991,"la2":30.254,"lo1":-89.0895,"lo2":-89.0444,"dy":0.0017,"dx":0.0017,"nx":28,"ny":28,"refTime":"2025-11-04T09:00:00:Z","depth":0,"parameterNumber":2,"parameterNumberName":"U-component_of_WINDS"},"data":[0,0,0,0,0,0,0,0,0,0,0,0,0,0,0,0,0,0,0,0,0,0,0,0,0,0,0,0,0,0,0,0,0,0,0,0,0,0,0,0,0,0,0,0,0,0,0,0,0,0,0,0,0,0,0,0,0,0,0.5638,0.5638,0,0.5621,0.5621,0.5621,0.5615,0.5616,0.5616,0.5616,0.5595,0.5595,0.5594,0,0,0,0,0,0,0,0,0,0,0,0,0,0.5663,0.5662,0.5638,0.5638,0.5637,0.5621,0.5621,0.5621,0.5615,0.5616,0.5616,0.5616,0.5596,0.5595,0.5594,0,0,0,0,0,0,0,0,0,0,0,0,0,0.5649,0.5662,0.5638,0.5633,0.5632,0.5621,0.5621,0.562,0.5615,0.5616,0.5616,0.5616,0.5596,0.5595,0.5594,0.5585,0,0,0.5591,0.5591,0,0,0,0,0,0,0,0,0.565,0.5648,0.5634,0.5633,0.5633,0.5621,0.5622,0.5609,0.5615,0.5622,0.5616,0.5616,0.5603,0.5602,0.5598,0.5585,0.5584,0.5591,0.5591,0.559,0.559,0,0,0,0,0,0,0,0.5651,0.5649,0.5631,0.5634,0.5633,0.5631,0.5629,0.562,0.5612,0.5621,0.5621,0.5619,0.5603,0.5599,0.5598,0.5583,0.5591,0.559,0.559,0.5589,0.5561,0.5561,0,0,0,0,0,0,0.5653,0.565,0.5632,0.5631,0.5642,0.563,0.5628,0.5624,0.5612,0.561,0.5619,0.5619,0.5601,0.5599,0.5597,0.5586,0.559,0.5589,0.5589,0.5561,0.5561,0.5561,0,0,0,0,0,0,0.5654,0.5652,0.5632,0.564,0.5638,0.563,0.5625,0.5624,0.562,0.561,0.5609,0.5617,0.5601,0.5598,0.5589,0.5585,0.5589,0.5588,0.5562,0.5561,0.5561,0.5564,0,0,0,0,0,0,0.5655,0.5652,0.5649,0.564,0.5637,0.5625,0.5625,0.5623,0.5619,0.5619,0.5608,0.5606,0.5601,0.559,0.5588,0.5584,0.5587,0.5562,0.5562,0.5561,0.5564,0.5564,0.5564,0,0,0,0,0,0.5655,0.565,0.5649,0.5647,0.5634,0.5625,0.5623,0.5618,0.5619,0.5615,0.5609,0.5606,0.5586,0.5589,0.5586,0.5582,0.5562,0.5562,0.5561,0.5564,0.5564,0.5564,0,0,0,0,0,0,0.5658,0.5649,0.5648,0.5639,0.5633,0.5624,0.562,0.5618,0.561,0.561,0.5603,0.5601,0.5591,0.5586,0.5589,0.5573,0.5574,0.5573,0.5577,0.5577,0.5577,0.5578,0.5586,0,0,0,0,0,0.5658,0.5652,0.5644,0.5637,0.5634,0.5628,0.5623,0.562,0.5613,0.561,0.5603,0.5595,0.5587,0.5582,0.5574,0.5564,0.5561,0.5559,0.5559,0.5559,0.5558,0.5552,0.5551,0.556,0.556,0.556,0,0,0.5656,0.5651,0.5647,0.5638,0.5632,0.5626,0.5625,0.5618,0.5613,0.5608,0.5599,0.5594,0.5584,0.5574,0.5569,0.5569,0.5555,0.5559,0.5558,0.5557,0.5551,0.5551,0.555,0.5559,0.5559,0.5559,0,0,0.5651,0.5647,0.5641,0.5636,0.5628,0.5624,0.5622,0.5614,0.561,0.5601,0.5597,0.559,0.5577,0.557,0.5565,0.5558,0.5555,0.5555,0.5554,0.5548,0.5547,0.5546,0.5543,0.5542,0.5554,0.5554,0.5554,0,0.5651,0.5642,0.5638,0.5631,0.5626,0.5623,0.5617,0.5611,0.5601,0.5598,0.5598,0.5581,0.5574,0.5563,0.5561,0.5557,0.5555,0.5556,0.5548,0.5547,0.5546,0.5543,0.5542,0.5555,0.5555,0.5555,0.5555,0,0.5641,0.5635,0.5631,0.5622,0.5617,0.561,0.5605,0.56,0.5597,0.5592,0.5583,0.5575,0.5565,0.5562,0.5559,0.555,0.555,0.5549,0.555,0.5546,0.5543,0.5542,0.5555,0.5555,0.5555,0.5555,0,0,0.5636,0.5626,0.5624,0.562,0.5612,0.5606,0.5599,0.5591,0.5587,0.558,0.5573,0.5562,0.5561,0.5555,0.5552,0.5547,0.5541,0.5546,0.5546,0.5545,0.553,0.553,0.5529,0.5539,0.5539,0.5539,0.553,0,0.563,0.5618,0.5614,0.5604,0.5598,0.5595,0.5589,0.5582,0.5578,0.5571,0.5566,0.5558,0.5558,0.5554,0.5549,0.5543,0.5537,0.5543,0.5532,0.5531,0.5534,0.5527,0.5528,0.552,0.5529,0.5529,0.5529,0,0.562,0.5614,0.5604,0.5596,0.5593,0.5588,0.558,0.5574,0.5566,0.5563,0.5557,0.5554,0.5546,0.5547,0.5535,0.5539,0.5534,0.553,0.553,0.5528,0.5529,0.5525,0.5518,0.5516,0.5527,0.5527,0.5527,0,0.5617,0.5606,0.5599,0.5595,0.5587,0.5583,0.5579,0.5571,0.5567,0.5559,0.5556,0.5547,0.5543,0.5536,0.553,0.5531,0.5518,0.5519,0.5514,0.5514,0.5511,0.5511,0.5502,0.5509,0.5509,0.5509,0.5509,0,0.561,0.5603,0.5597,0.5593,0.5585,0.5581,0.5573,0.5569,0.5562,0.5556,0.5553,0.5546,0.5539,0.5532,0.5527,0.5518,0.5515,0.5512,0.5511,0.5512,0.5512,0.5508,0.5508,0.5508,0.5509,0.5509,0.5509,0,0.5605,0.5601,0.5592,0.5585,0.5583,0.5578,0.5571,0.5565,0.5561,0.5553,0.5551,0.5544,0.5535,0.5529,0.5517,0.5514,0.5503,0.5502,0.5506,0.5505,0.5501,0.5501,0.5489,0.5487,0.5495,0.5495,0.5495,0,0.56,0.5595,0.5588,0.5584,0.558,0.5574,0.5569,0.5564,0.556,0.5551,0.5546,0.5538,0.5531,0.5516,0.5509,0.55,0.5499,0.5495,0.5497,0.5499,0.5498,0.5498,0.5497,0.5494,0.5494,0.5494,0.5494,0,0.5592,0.559,0.5585,0.5578,0.5573,0.5567,0.5561,0.5558,0.5552,0.5546,0.5538,0.5533,0.5521,0.5512,0.5503,0.5497,0.5494,0.5494,0.5492,0.5493,0.5495,0.5494,0.5505,0.5494,0.5494,0.5494,0.5494,0.5494,0.5587,0.5582,0.5576,0.557,0.5565,0.556,0.5555,0.555,0.5543,0.5535,0.5532,0.5523,0.5515,0.5503,0.5497,0.5489,0.5489,0.5487,0.5486,0.5486,0.5486,0.5497,0.5488,0.5488,0.5488,0.5488,0.5488,0,0.5578,0.5574,0.5568,0.5561,0.5555,0.5555,0.5548,0.5543,0.5536,0.553,0.5523,0.5513,0.5505,0.5497,0.5488,0.5483,0.5482,0.5481,0.5481,0.548,0.5486,0.5489,0.5482,0.5482,0.5482,0.5482,0.5482,0.5482,0.5573,0.5565,0.5563,0.5553,0.5549,0.5541,0.5537,0.5532,0.5527,0.5517,0.551,0.5506,0.5499,0.5489,0.5481,0.5479,0.5475,0.5475,0.5472,0.5479,0.5479,0.548,0.5482,0.5474,0.5474,0.5466,0.5466,0.5466]},{"header":{"parameterUnit":"m.s-1","parameterCategory":1,"la1":30.2991,"la2":30.254,"lo1":-89.0895,"lo2":-89.0444,"dy":0.0017,"dx":0.0017,"nx":28,"ny":28,"refTime":"2025-11-04T09:00:00:Z","depth":0,"parameterNumber":3,"parameterNumberName":"V-component_of_WINDS"},"data":[0,0,0,0,0,0,0,0,0,0,0,0,0,0,0,0,0,0,0,0,0,0,0,0,0,0,0,0,0,0,0,0,0,0,0,0,0,0,0,0,0,0,0,0,0,0,0,0,0,0,0,0,0,0,0,0,0,0,0.3359,0.3359,0,0.3274,0.3273,0.3272,0.3225,0.3224,0.3224,0.3224,0.3129,0.3127,0.3124,0,0,0,0,0,0,0,0,0,0,0,0,0,0.3476,0.3474,0.336,0.3359,0.3357,0.3274,0.3273,0.3272,0.3225,0.3224,0.3224,0.3224,0.313,0.3127,0.3124,0,0,0,0,0,0,0,0,0,0,0,0,0,0.3412,0.3474,0.336,0.3324,0.332,0.3274,0.3273,0.3272,0.3225,0.3224,0.3224,0.3224,0.3131,0.3127,0.3124,0.3105,0,0,0.3113,0.3111,0,0,0,0,0,0,0,0,0.3415,0.3407,0.333,0.3326,0.3322,0.326,0.3279,0.3215,0.3225,0.3261,0.3224,0.3224,0.3172,0.3165,0.3149,0.31,0.3096,0.3112,0.311,0.3109,0.3108,0,0,0,0,0,0,0,0.342,0.3411,0.3325,0.3329,0.3324,0.331,0.3301,0.3267,0.3218,0.3257,0.3254,0.3245,0.317,0.3153,0.3147,0.3095,0.3112,0.3109,0.3107,0.3106,0.3028,0.3028,0,0,0,0,0,0,0.3431,0.3415,0.3328,0.3323,0.3369,0.3309,0.3298,0.328,0.3219,0.3209,0.3245,0.3243,0.3159,0.3151,0.3143,0.3118,0.3109,0.3105,0.3103,0.3027,0.3028,0.3028,0,0,0,0,0,0,0.3434,0.3424,0.3332,0.3368,0.3355,0.3307,0.3287,0.3278,0.3261,0.3209,0.32,0.3237,0.3159,0.3148,0.3116,0.3114,0.3104,0.31,0.3027,0.3028,0.3028,0.3067,0,0,0,0,0,0,0.3437,0.3425,0.3418,0.3368,0.3354,0.3307,0.3287,0.3277,0.3256,0.3253,0.3199,0.319,0.3158,0.3121,0.3112,0.3109,0.3097,0.3027,0.3027,0.3028,0.3065,0.3068,0.3071,0,0,0,0,0,0.3442,0.3431,0.3418,0.3408,0.3345,0.3307,0.3298,0.3264,0.3256,0.3248,0.3215,0.3192,0.3116,0.3118,0.3107,0.3103,0.3027,0.3027,0.3028,0.3064,0.3068,0.3071,0,0,0,0,0,0,0.3478,0.3423,0.3409,0.3382,0.335,0.3299,0.3288,0.3268,0.3236,0.3233,0.3189,0.3178,0.3149,0.3123,0.3126,0.3082,0.3069,0.3067,0.3101,0.3103,0.3106,0.3112,0.3094,0,0,0,0,0,0.3484,0.3461,0.3413,0.3393,0.3379,0.3337,0.3319,0.3296,0.3259,0.3245,0.3209,0.3173,0.3141,0.3121,0.3089,0.3062,0.3049,0.3053,0.3056,0.3059,0.3057,0.3042,0.3043,0.3029,0.3029,0.3029,0,0,0.3494,0.3461,0.3448,0.34,0.3373,0.3348,0.3325,0.3299,0.328,0.324,0.3208,0.3181,0.3138,0.3108,0.3093,0.3085,0.3059,0.3059,0.3061,0.3058,0.3042,0.3044,0.3045,0.3029,0.3029,0.3029,0,0,0.35,0.3473,0.3455,0.3429,0.3389,0.3361,0.3357,0.331,0.3292,0.3259,0.323,0.3205,0.3151,0.3122,0.31,0.3099,0.3076,0.3089,0.3102,0.3088,0.3089,0.309,0.3089,0.309,0.3088,0.3088,0.3088,0,0.3517,0.348,0.3447,0.3424,0.3404,0.337,0.3351,0.3326,0.3276,0.3262,0.3255,0.3188,0.3157,0.3121,0.3121,0.3104,0.3097,0.3094,0.3092,0.3093,0.3093,0.3092,0.3092,0.309,0.309,0.309,0.309,0,0.3503,0.3478,0.3468,0.3425,0.3403,0.3382,0.3344,0.3326,0.3305,0.3279,0.3246,0.3208,0.3169,0.3158,0.3136,0.312,0.3116,0.3101,0.3087,0.3097,0.3095,0.3094,0.3093,0.3092,0.3092,0.3091,0,0,0.3527,0.3469,0.3465,0.3446,0.3401,0.338,0.3357,0.3321,0.3307,0.3274,0.3253,0.321,0.3197,0.3172,0.3147,0.3135,0.3137,0.3121,0.3119,0.3125,0.3116,0.3127,0.3127,0.3122,0.3122,0.3122,0.312,0,0.3526,0.3486,0.3457,0.3428,0.3404,0.3374,0.3354,0.3323,0.3298,0.3273,0.3244,0.3215,0.32,0.3185,0.3171,0.3139,0.3134,0.3139,0.3101,0.31,0.3112,0.3126,0.3137,0.3137,0.3119,0.3119,0.3119,0,0.3519,0.3491,0.3461,0.342,0.3409,0.3392,0.3358,0.3335,0.3299,0.3282,0.3257,0.3232,0.3205,0.3195,0.3158,0.3162,0.3145,0.3127,0.3126,0.312,0.3109,0.312,0.3136,0.3136,0.3117,0.3117,0.3117,0,0.354,0.3495,0.3471,0.3455,0.3407,0.3396,0.3375,0.334,0.3321,0.329,0.3277,0.3243,0.3224,0.3198,0.3164,0.316,0.313,0.3117,0.3114,0.3115,0.3107,0.3108,0.312,0.3098,0.3098,0.3098,0.3098,0,0.3541,0.3524,0.348,0.3465,0.3444,0.3411,0.3391,0.3367,0.3336,0.3315,0.3286,0.3267,0.3224,0.3199,0.3172,0.3145,0.3137,0.3121,0.3114,0.3123,0.3125,0.311,0.3109,0.3098,0.3098,0.3098,0.3098,0,0.356,0.3531,0.3503,0.3461,0.345,0.3436,0.34,0.3383,0.3358,0.3332,0.3324,0.3283,0.3253,0.3217,0.3174,0.3156,0.3131,0.3121,0.3144,0.314,0.3139,0.3139,0.3141,0.3139,0.3119,0.3119,0.312,0,0.3563,0.3549,0.3507,0.3493,0.3473,0.3449,0.3431,0.3398,0.3379,0.334,0.3328,0.3297,0.3269,0.3221,0.3186,0.3154,0.3142,0.3145,0.3136,0.3147,0.3141,0.3143,0.3141,0.3147,0.3147,0.3147,0.3148,0,0.357,0.3557,0.3533,0.3504,0.3484,0.3459,0.3432,0.3421,0.3383,0.3363,0.3333,0.3312,0.327,0.3238,0.3202,0.3178,0.3156,0.3151,0.3149,0.3157,0.3171,0.3164,0.3149,0.3151,0.315,0.315,0.315,0.315,0.3581,0.3568,0.3537,0.3511,0.3489,0.3465,0.3449,0.3423,0.3398,0.3363,0.3345,0.3316,0.3281,0.3231,0.3208,0.3184,0.3176,0.3172,0.3171,0.317,0.3173,0.3177,0.3177,0.3177,0.3176,0.3176,0.3176,0,0.3587,0.3566,0.3543,0.3509,0.3489,0.3474,0.3444,0.3428,0.3403,0.3374,0.3349,0.3315,0.3285,0.325,0.3217,0.3204,0.3193,0.3196,0.3196,0.3191,0.3182,0.3187,0.3206,0.3206,0.3206,0.3206,0.3206,0.3206,0.3587,0.3565,0.3548,0.3514,0.3493,0.3466,0.3451,0.3429,0.3406,0.3371,0.3347,0.3325,0.3294,0.3259,0.323,0.3221,0.3209,0.3216,0.3203,0.3194,0.3192,0.3189,0.3194,0.3214,0.3214,0.3214,0.3214,0.3214]}]]